Tracking 32139 objects as of 18-Nov-2025
HD Live streaming from Space Station
objects crossing your sky now

STARLINK-31030

Track STARLINK-31030 now!
10-day predictions
STARLINK-31030 is classified as:


NORAD ID: 58542
Int'l Code: 2023-192M
Perigee: 481.5 km
Apogee: 483.4 km
Inclination: 53.2 °
Period: 94.1 minutes
Semi major axis: 6853 km
RCS: Unknown
Launch date: December 8, 2023
Source: United States (US)
Launch site: AIR FORCE WESTERN TEST RANGE (AFWTR)
Your satellite tracking list
Your tracking list is empty




NASA's NSSDC Master Catalog

Two Line Element Set (TLE):
1 58542U 23192M   25322.00296642  .00003099  00000-0  11681-3 0  9995
2 58542  53.1607 221.6566 0001408  89.9092 270.2071 15.30172430108886
Source of the keplerian elements: AFSPC